Vertical_Velocity
0 -3 -0 -1 -2 -2 -2 -1 -2 -1 -3 -2 1 6 1 1 -0 0 0 -3 0 -1 -0 -1 -1 -1 0 2 1 -2 0 -5 -5 6 7 11 -0 2 7 -8 -4 -2 0
-1 1 -1 -0 2 1 -2 -3 -2 -2 -2 -3 -4 -2 -2 0 -2 -1 -1 2 1 1 2 -3 1 -2 1 -1 2 5 1 5 -1 -6 4 14 4 3 -2 2 -4 3 4
-2 0 -1 -0 -2 2 -1 -4 -4 -2 -2 -3 1 -1 -3 -4 -5 -3 -2 -1 -0 1 -1 -1 3 0 3 7 7 1 4 -2 3 -0 10 8 -4 -3 0 -3 1 1 2
-2 -3 -1 3 1 -4 -4 -1 -1 -1 -2 -1 -1 -1 1 -2 -2 -0 -0 -1 -1 2 0 -3 -0 2 1 -1 6 3 -0 -1 -1 6 -2 -1 -1 2 -1 1 2 -3 2
-2 -2 3 -1 -2 -2 -1 -2 -1 -3 0 -0 -1 1 2 0 0 1 -1 1 0 -1 -0 -2 0 -2 -2 10 1 10 4 3 3 0 0 -1 4 -1 3 -2 -1 -5 -5
-4 -1 -3 -3 0 -0 -2 -1 -4 -1 -4 -2 -1 -2 -3 -1 2 1 -0 2 1 1 3 3 2 -1 0 3 -1 -3 -0 -5 5 -0 5 2 4 0 5 -0 2 -1 3
-0 1 -1 -2 -1 -0 1 -1 -1 -1 -1 1 -1 -2 -1 -1 1 2 -2 -2 1 -1 1 3 -0 0 9 0 4 2 3 5 -3 -0 4 0 -3 5 8 -2 0 1 2
1 0 1 -3 3 2 2 1 -1 1 -2 -1 -0 -0 -0 -0 -1 4 0 -3 1 3 0 2 1 1 4 -2 5 -2 -0 -1 18 -4 -2 -4 -0 16 19 1 -0 1 6
5 1 0 -4 -2 -0 1 2 2 5 3 0 -1 1 1 1 3 1 -2 -1 0 2 1 0 0 -1 -0 -1 -2 -1 2 3 2 9 -4 1 7 -8 0 1 -2 -2 -1
4 6 -1 1 -2 -1 1 -0 -3 -0 2 0 2 -0 6 3 3 2 -1 -2 -3 -0 2 1 0 -2 1 0 3 2 1 -2 13 -5 1 18 24 15 7 8 3 -1 -2
1 1 0 -1 6 11 17 10 5 -0 -4 -1 4 -0 -1 -2 2 2 1 -5 0 -1 -1 -0 -1 0 -1 -1 -2 -3 -2 1 1 2 -0 21 -2 4 6 4 -1 1 1
8 -1 -2 -8 3 18 10 -1 -1 -2 -5 -4 2 -2 -1 1 2 1 0 -1 -1 -3 -1 -1 -2 -2 -2 -0 -2 2 2 -6 17 -3 13 4 10 12 2 3 4 6 2
0 9 5 1 -2 5 1 -1 -3 -2 0 4 -0 -1 11 7 31 9 4 -3 7 0 -4 -4 -1 1 -1 -1 -0 2 20 6 5 13 6 4 5 2 1 3 3 -1 2
1 2 0 2 -0 8 1 -0 11 8 2 3 5 1 17 -4 -1 8 1 -3 -0 1 2 0 2 1 1 4 1 -1 6 11 5 11 6 1 0 1 4 -1 -1 -1 -2
2 3 3 1 3 3 4 5 2 5 13 -1 17 53 1 -3 10 10 -0 0 1 2 1 2 4 1 1 -1 5 7 7 4 1 1 0 -1 -1 -2 -3 -0 -3 -5 -3
3 1 -0 -5 -0 -1 17 22 20 18 18 7 2 0 -2 -3 -0 6 13 -1 -0 -2 1 4 2 1 7 4 1 3 2 1 -1 -3 -0 -1 1 1 0 -0 -1 -1 -1
0 4 4 -1 -1 -3 7 -0 2 -1 -3 -2 5 12 8 5 12 12 11 16 13 7 4 7 6 6 6 1 -1 -1 -1 4 2 3 0 0 -1 -0 0 -1 -1 -0 1
3 -5 -3 -1 2 -0 0 -3 21 7 -3 -5 -1 5 9 10 11 9 4 12 6 7 9 5 5 3 -2 -2 -2 -2 -1 -4 1 -1 -1 -1 -1 -1 -0 -0 -1 -1 -2
15 29 10 12 8 37 27 18 21 13 13 12 13 8 9 5 11 8 7 7 2 5 5 1 3 2 -1 -2 1 -0 -1 -3 -3 -1 -2 -0 -1 -2 -2 -2 -0 1 -1
-10 14 8 3 7 3 -7 7 6 10 3 0 4 3 -0 3 3 8 4 8 4 3 0 3 0 -0 0 -1 -1 -1 -0 -1 -1 -1 -2 -1 -2 -2 -2 -1 -2 -4 -2
2 -2 7 8 3 6 3 -3 4 7 7 3 5 4 2 -5 -6 -1 1 -2 0 -2 -4 -2 -2 -2 1 2 -2 0 -2 -1 -3 -3 -3 -5 -2 -1 -1 -1 -3 -5 -4
-1 -5 0 5 3 -4 -7 -7 -5 -6 -2 2 2 -1 1 4 4 6 4 1 -0 1 2 0 -1 1 3 1 0 1 -2 -2 -2 -3 -2 -2 -2 -2 -4 -2 -4 -4 -2
1 -0 1 2 -3 3 7 6 7 7 7 5 3 3 1 1 1 3 2 1 2 1 1 -1 1 -2 -2 -1 -1 -0 -0 -1 -1 -4 -2 -5 -3 -2 -3 -3 -3 -1 -2
0 0 1 3 4 2 1 3 -1 1 2 2 3 2 2 1 3 1 2 2 0 -0 -3 -1 -1 -4 -1 -0 -1 -2 -1 -2 -2 -3 -3 -3 -3 -1 -2 -3 -3 -2 -3
1 1 0 -3 -3 -1 -0 -1 1 1 0 1 1 0 -0 0 -2 -1 -2 -1 -0 -1 2 0 2 -1 1 -2 -3 -2 -1 -2 -2 -2 -3 -3 -2 -2 -3 -3 -1 -7 1
-1 -1 -1 -2 -2 -1 -2 -1 -2 -1 -3 -1 -1 -2 1 -1 -3 -2 0 -1 -0 0 -0 2 -1 -2 -2 -2 -2 -2 -2 -2 -3 -4 -3 -3 -2 -4 -3 -1 -4 -1 -1
Height
5702 5704 5704 5705 5706 5706 5705 5706 5706 5706 5706 5706 5706 5707 5706 5706 5708 5708 5710 5709 5710 5712 5713 5714 5715 5716 5715 5714 5714 5712 5711 5708 5706 5707 5706 5704 5701 5698 5697 5692 5690 5688 5684
5697 5698 5699 5700 5700 5701 5700 5700 5700 5700 5701 5701 5701 5701 5702 5703 5703 5703 5702 5705 5704 5705 5706 5705 5706 5707 5707 5706 5703 5701 5698 5696 5694 5693 5693 5692 5689 5686 5684 5681 5678 5676 5672
5691 5692 5692 5694 5695 5694 5694 5694 5694 5694 5694 5694 5695 5696 5695 5695 5695 5696 5697 5696 5696 5695 5695 5697 5697 5697 5696 5695 5693 5690 5687 5683 5680 5681 5682 5681 5677 5674 5671 5667 5664 5660 5657
5683 5685 5686 5687 5687 5687 5687 5687 5687 5687 5688 5688 5688 5688 5689 5688 5689 5689 5688 5688 5686 5684 5683 5683 5685 5686 5685 5683 5680 5677 5674 5671 5669 5670 5669 5666 5664 5661 5656 5653 5649 5645 5642
5674 5676 5679 5678 5679 5679 5680 5680 5680 5679 5680 5679 5679 5680 5680 5679 5680 5679 5677 5677 5676 5674 5672 5673 5674 5675 5673 5670 5667 5666 5663 5662 5661 5658 5656 5654 5650 5645 5642 5638 5634 5630 5626
5667 5669 5669 5670 5671 5672 5672 5671 5671 5671 5671 5670 5670 5670 5670 5670 5670 5668 5666 5665 5665 5664 5664 5664 5663 5662 5661 5660 5657 5655 5653 5650 5650 5645 5644 5639 5636 5632 5628 5624 5620 5616 5611
5658 5659 5660 5661 5662 5663 5662 5662 5663 5662 5661 5661 5660 5659 5659 5659 5659 5658 5655 5654 5654 5653 5652 5653 5652 5651 5651 5649 5647 5644 5642 5640 5637 5634 5630 5626 5621 5616 5612 5609 5604 5600 5595
5648 5649 5650 5651 5652 5652 5652 5653 5654 5652 5652 5651 5650 5649 5648 5648 5648 5647 5645 5642 5643 5643 5641 5640 5640 5639 5639 5636 5636 5633 5630 5627 5626 5618 5616 5610 5607 5602 5596 5592 5588 5582 5576
5638 5639 5641 5641 5641 5641 5641 5642 5642 5642 5642 5641 5639 5639 5638 5637 5637 5636 5634 5632 5632 5631 5630 5629 5628 5626 5625 5623 5622 5620 5616 5613 5612 5607 5602 5594 5590 5590 5584 5577 5570 5564 5558
5625 5629 5629 5629 5629 5630 5631 5631 5631 5632 5631 5630 5628 5627 5626 5625 5626 5624 5623 5621 5619 5618 5617 5615 5614 5612 5610 5608 5606 5604 5601 5599 5593 5591 5585 5581 5574 5569 5563 5557 5551 5545 5537
5613 5614 5615 5617 5619 5618 5617 5617 5618 5619 5620 5618 5618 5616 5614 5614 5614 5613 5612 5610 5608 5606 5604 5601 5600 5598 5596 5593 5591 5588 5585 5580 5579 5574 5569 5562 5558 5552 5544 5538 5530 5524 5517
5601 5600 5601 5602 5604 5606 5607 5606 5606 5606 5606 5606 5605 5602 5602 5601 5601 5600 5598 5596 5595 5592 5590 5588 5585 5583 5580 5577 5574 5571 5568 5564 5562 5554 5549 5546 5539 5534 5526 5517 5511 5504 5496
5586 5588 5588 5589 5591 5592 5593 5594 5594 5593 5592 5591 5588 5589 5589 5587 5587 5585 5584 5581 5578 5576 5574 5573 5571 5568 5564 5560 5557 5553 5550 5545 5541 5537 5533 5526 5520 5512 5505 5497 5490 5482 5475
5571 5573 5574 5575 5576 5577 5579 5579 5580 5579 5577 5576 5575 5575 5575 5574 5572 5571 5568 5564 5563 5561 5559 5556 5554 5550 5547 5544 5540 5536 5532 5530 5525 5519 5513 5505 5499 5492 5482 5474 5468 5460 5453
5556 5558 5558 5560 5560 5560 5560 5562 5563 5563 5562 5562 5563 5559 5557 5557 5555 5553 5551 5550 5547 5545 5542 5540 5537 5533 5530 5527 5523 5518 5514 5510 5505 5499 5492 5484 5477 5470 5462 5454 5446 5439 5430
5541 5543 5544 5545 5545 5546 5546 5545 5546 5546 5547 5545 5547 5544 5541 5540 5538 5535 5533 5532 5529 5527 5525 5522 5519 5516 5513 5509 5505 5500 5496 5490 5483 5477 5471 5464 5457 5449 5441 5431 5422 5413 5405
5525 5528 5529 5529 5530 5531 5533 5532 5531 5530 5530 5530 5529 5527 5525 5523 5520 5516 5515 5511 5509 5507 5505 5504 5500 5497 5493 5488 5484 5479 5474 5468 5462 5456 5449 5442 5434 5425 5417 5407 5398 5389 5380
5508 5512 5513 5514 5515 5516 5518 5517 5516 5515 5515 5513 5511 5510 5508 5503 5499 5495 5494 5491 5490 5487 5485 5482 5479 5476 5472 5468 5463 5458 5452 5446 5439 5432 5425 5417 5408 5399 5390 5381 5372 5362 5352
5494 5493 5494 5498 5500 5498 5496 5498 5497 5497 5496 5494 5492 5491 5490 5489 5486 5482 5480 5477 5473 5471 5468 5464 5460 5455 5451 5446 5440 5434 5428 5421 5414 5406 5398 5390 5381 5373 5363 5353 5342 5331 5321
5478 5480 5478 5482 5482 5480 5482 5481 5480 5478 5479 5478 5476 5476 5475 5474 5471 5468 5465 5461 5457 5452 5449 5444 5439 5434 5429 5423 5416 5409 5402 5394 5387 5379 5371 5363 5354 5344 5334 5324 5313 5302 5290
5470 5469 5467 5466 5466 5465 5465 5464 5465 5463 5463 5462 5461 5459 5458 5455 5452 5450 5446 5443 5439 5433 5428 5423 5417 5412 5404 5398 5391 5385 5377 5369 5362 5353 5344 5335 5325 5315 5304 5293 5282 5270 5259
5458 5457 5455 5453 5453 5452 5452 5452 5451 5450 5449 5446 5444 5442 5440 5437 5434 5430 5425 5422 5417 5412 5406 5399 5393 5386 5380 5373 5366 5360 5351 5343 5335 5326 5316 5306 5296 5286 5275 5264 5253 5241 5230
5444 5443 5442 5441 5440 5438 5436 5435 5434 5433 5431 5428 5426 5423 5420 5417 5413 5409 5405 5400 5394 5388 5382 5376 5369 5363 5356 5350 5342 5334 5325 5316 5307 5298 5288 5278 5268 5258 5248 5237 5227 5216 5206
5431 5429 5427 5425 5423 5423 5421 5420 5418 5415 5412 5409 5406 5403 5399 5395 5391 5387 5382 5377 5371 5366 5359 5352 5346 5340 5332 5324 5316 5307 5298 5289 5280 5271 5262 5253 5244 5235 5225 5214 5204 5195 5188
5418 5416 5415 5414 5411 5409 5406 5403 5400 5397 5393 5390 5387 5383 5379 5375 5370 5365 5359 5355 5349 5343 5336 5329 5321 5313 5304 5297 5289 5282 5273 5265 5256 5248 5241 5233 5225 5215 5205 5196 5189 5182 5176
5403 5401 5399 5397 5394 5391 5388 5385 5382 5379 5375 5371 5368 5363 5358 5354 5349 5343 5338 5331 5324 5317 5310 5302 5295 5288 5282 5275 5268 5260 5253 5245 5237 5230 5222 5215 5207 5198 5191 5186 5180 5175 5172